Lapse_Rate
5.2 5.3 5.6 5.4 5.2 5.0 3.1 3.2 3.9 3.8 3.6 3.8 3.9 4.1 4.5 4.3 4.4 4.4 4.5 5.1 5.7 6.1 6.3 6.2 6.3 6.2 6.3 6.4 6.5 6.4 6.1 5.8 5.8 5.9 6.0 6.1 6.3 6.4 6.3 6.5 6.9 6.9 7.0
3.4 4.9 5.3 6.1 5.5 4.6 3.6 3.4 3.9 3.7 3.6 3.9 3.9 4.1 4.2 4.3 4.5 4.6 5.1 5.6 5.9 6.3 6.4 6.5 6.6 6.7 6.7 6.8 6.7 6.8 6.2 6.0 5.6 5.5 6.0 8.2 7.2 6.2 6.1 6.2 6.3 7.9 7.2
3.3 4.4 3.1 5.5 5.4 4.9 4.0 3.9 4.2 3.9 3.9 3.9 3.9 4.1 4.1 4.4 4.7 5.2 5.3 5.6 5.9 6.2 6.5 6.8 6.9 6.9 6.9 7.0 6.8 6.8 6.8 5.8 5.5 5.2 5.4 5.9 8.1 8.3 7.4 6.8 6.9 7.9 7.7
3.8 4.4 4.3 4.7 6.3 4.6 4.6 4.8 4.5 4.0 4.1 4.1 4.2 4.2 4.2 4.6 5.0 5.1 5.3 5.5 5.9 6.4 6.7 6.8 6.7 7.0 7.1 6.9 6.2 6.3 6.2 5.7 5.5 4.8 4.8 6.5 8.1 8.0 8.0 8.1 8.1 7.9 8.4
3.9 4.1 5.2 4.0 5.4 5.6 5.2 5.1 4.8 4.6 4.5 4.2 4.5 4.6 4.8 5.1 5.2 5.1 5.3 5.7 6.1 6.4 6.5 6.5 6.6 6.7 6.5 6.1 6.0 5.8 5.7 5.1 4.6 4.3 4.6 5.7 8.5 8.1 7.1 6.9 7.0 6.6 7.0
3.9 4.5 4.7 4.6 5.3 5.3 5.0 5.8 4.8 4.6 4.3 4.5 4.9 4.9 5.0 5.1 5.1 5.2 5.4 5.8 6.3 6.5 6.3 6.4 6.4 6.2 5.6 6.0 5.7 5.2 5.0 4.6 4.2 4.1 4.2 5.5 6.4 7.3 6.8 6.2 6.3 7.3 6.8
3.7 4.5 5.0 4.1 5.7 4.3 3.9 7.1 4.5 4.5 4.6 5.1 5.2 5.0 5.1 5.2 5.2 5.4 5.5 5.8 6.0 6.0 5.9 6.0 5.9 6.1 5.6 5.8 5.4 5.2 5.1 4.6 3.9 4.2 4.7 5.8 7.8 9.0 8.2 6.4 6.1 5.9 6.1
3.7 4.2 4.1 4.2 5.1 5.9 5.9 5.2 3.8 4.7 5.1 5.2 5.0 5.0 5.0 5.1 5.1 5.2 5.3 5.3 5.2 5.2 5.2 5.4 5.8 6.4 6.6 5.8 5.6 5.2 5.1 5.0 4.5 4.5 4.8 5.3 6.8 8.0 7.4 6.1 6.3 6.7 6.5
3.7 4.4 4.9 4.5 3.8 5.2 7.6 5.0 3.9 4.3 4.4 4.8 5.2 5.0 4.7 4.7 4.8 5.0 5.0 5.0 5.0 5.3 5.8 6.1 6.1 6.7 6.9 6.3 5.8 5.5 5.0 4.8 4.6 4.9 5.0 5.9 7.9 8.9 8.8 7.6 6.9 6.6 6.2
4.1 3.4 3.1 4.3 4.5 3.4 4.0 5.6 3.8 3.5 3.7 4.0 3.8 3.9 4.3 4.5 4.6 4.7 4.9 5.1 5.1 5.7 6.2 6.5 6.4 6.2 6.6 5.3 5.4 5.3 5.2 5.2 5.0 5.1 5.6 7.1 9.1 9.2 9.3 9.1 8.9 7.8 7.3
3.8 3.5 3.7 4.4 4.4 3.7 7.2 5.1 4.4 3.8 3.9 4.2 4.2 4.1 4.3 4.2 4.4 4.5 4.8 5.2 5.4 5.8 6.4 6.5 6.2 6.3 6.7 5.5 5.1 5.0 5.0 4.5 4.6 4.9 5.6 6.4 8.7 8.9 8.8 8.7 8.7 8.6 8.0
5.0 4.6 4.4 2.2 4.5 5.1 6.0 5.3 4.7 5.2 4.8 4.6 4.3 3.8 3.6 3.6 4.4 4.4 4.9 5.6 5.7 5.5 5.9 6.4 6.3 6.4 6.2 5.3 5.1 5.2 4.2 4.1 4.4 4.8 5.8 6.9 9.0 8.4 8.7 8.8 8.2 9.2 9.2
4.2 3.9 3.9 4.3 4.3 3.9 5.3 4.8 3.5 3.8 4.0 4.5 4.3 4.2 4.2 3.9 3.8 3.3 3.8 4.2 4.6 5.2 5.3 5.9 5.9 5.7 6.1 5.3 4.3 4.1 3.8 3.9 4.0 4.6 5.8 6.7 8.3 8.6 8.2 8.6 8.9 8.9 7.7
4.1 3.9 4.6 4.6 4.4 4.9 5.5 4.5 3.7 4.7 3.5 3.9 3.9 3.7 3.7 3.4 2.7 2.7 3.1 3.6 4.5 5.1 4.7 5.0 5.2 5.3 5.8 5.6 4.9 3.8 3.6 3.3 3.7 4.5 5.6 6.8 7.9 8.2 8.4 8.5 9.0 8.7 7.9
2.9 3.0 3.7 4.4 4.5 4.1 4.5 3.5 3.9 3.9 3.9 4.4 4.5 4.3 3.7 3.1 2.5 3.0 3.0 3.9 4.6 4.6 4.7 4.2 4.8 5.1 5.0 5.1 4.4 3.8 3.2 3.3 4.0 4.7 5.4 6.8 7.0 7.4 8.0 8.0 8.5 8.5 8.9
3.0 3.1 3.0 4.1 4.7 4.5 4.6 4.7 4.0 4.4 4.2 4.5 4.3 4.2 4.0 3.4 3.1 3.0 3.1 3.5 4.2 4.9 5.1 5.1 4.7 4.5 4.2 4.6 4.2 4.0 3.4 3.3 4.0 4.0 4.6 6.0 6.6 6.8 7.3 7.8 8.3 8.8 9.0
4.1 3.2 3.5 3.3 4.1 4.5 4.5 4.5 4.4 4.5 5.1 4.9 4.5 4.9 4.8 4.9 4.1 3.9 3.2 3.1 4.5 5.4 5.5 5.3 4.9 4.4 3.2 4.1 3.7 4.2 3.6 3.8 3.8 3.8 4.0 4.6 5.6 6.6 7.0 7.3 7.7 7.8 7.8
3.6 3.7 4.3 5.2 4.3 5.1 5.0 5.9 5.4 3.9 4.7 5.5 5.0 4.7 5.2 5.3 5.4 4.4 3.7 3.9 5.3 5.3 5.2 4.4 3.5 2.7 2.7 2.6 2.7 2.5 3.7 3.6 3.8 3.7 3.7 4.0 4.6 5.3 6.3 6.8 7.1 7.3 7.5
4.7 4.4 4.0 5.0 5.1 5.6 5.6 6.3 5.2 4.1 4.3 4.9 5.3 4.4 5.0 6.0 5.6 4.4 4.2 4.5 5.5 4.7 4.1 4.0 3.3 3.1 2.7 2.1 2.5 1.8 2.1 2.7 3.7 3.7 3.3 3.7 4.1 4.7 5.4 6.0 6.3 6.5 6.8
4.5 5.2 5.2 5.9 6.1 5.9 5.5 5.1 4.6 3.7 4.0 5.2 4.2 4.1 5.3 5.8 5.8 5.2 4.9 4.7 4.7 3.6 3.1 3.4 3.8 2.9 2.9 2.4 5.1 3.5 1.7 2.3 3.3 3.0 3.4 4.0 4.0 4.4 4.5 5.1 5.6 5.8 6.3
4.2 4.7 5.5 5.6 5.3 5.5 6.1 5.7 5.0 4.1 3.3 3.5 3.8 4.4 5.1 6.0 5.9 5.0 4.4 3.9 4.1 4.4 4.2 3.4 2.9 3.2 2.4 2.0 2.7 2.4 2.4 1.8 1.9 1.7 3.3 3.5 3.6 4.1 4.6 4.9 5.1 5.4 5.9
3.6 4.6 5.3 5.6 5.5 5.7 5.9 5.8 5.2 5.0 3.7 4.0 4.6 4.4 5.1 4.9 5.4 5.0 4.0 3.2 3.8 3.5 3.1 2.6 2.9 2.0 2.7 1.5 2.8 2.0 3.8 3.2 2.0 2.0 1.9 2.3 2.6 4.0 3.5 4.4 4.7 5.0 5.4
3.3 3.5 4.2 4.7 4.6 5.5 5.8 5.2 4.3 4.2 3.9 4.3 4.4 4.4 4.1 5.2 5.2 5.2 4.2 3.9 3.7 3.4 3.3 2.4 2.3 2.9 2.8 1.7 2.4 2.8 2.7 3.3 2.6 1.5 2.4 2.2 3.0 1.9 3.1 3.8 4.4 4.7 5.0
2.5 3.7 4.3 4.5 4.9 4.9 5.6 5.8 5.9 6.0 5.8 6.0 5.7 5.2 4.0 4.7 4.7 4.7 4.2 3.9 3.4 3.4 2.4 2.4 1.9 2.3 3.0 3.3 3.1 4.2 3.6 3.2 4.2 4.3 2.8 3.6 3.2 2.9 1.9 3.0 4.1 4.4 4.7
2.0 2.8 4.0 4.9 5.8 5.5 5.7 6.2 5.8 5.7 6.2 5.2 4.2 4.9 4.2 3.3 4.3 4.5 3.9 3.1 2.6 2.6 2.3 1.8 1.7 2.0 2.1 2.3 2.2 2.8 3.5 3.4 3.8 4.1 4.7 4.8 4.0 3.4 3.2 3.0 3.6 3.8 4.5
2.7 2.7 3.3 4.1 4.7 5.7 5.4 5.4 5.6 5.2 5.3 5.1 4.1 4.4 4.5 3.9 3.2 3.1 3.6 3.1 2.9 2.5 1.7 1.4 1.7 1.6 1.3 1.5 1.9 2.7 3.1 3.6 4.1 3.7 3.9 3.8 4.7 5.1 3.1 2.6 2.5 3.6 4.8
Wind_Speed
6 14 15 19 26 16 21 26 22 26 30 30 32 34 33 34 33 33 32 30 28 27 29 29 28 30 29 30 29 29 28 27 27 27 27 28 27 26 26 26 25 25 28
5 19 18 14 18 19 24 26 25 27 29 31 32 34 33 33 32 31 31 29 28 28 29 28 28 28 28 27 26 28 27 26 25 25 25 27 27 26 27 27 26 25 27
6 19 28 11 15 19 23 26 25 27 28 30 32 33 33 33 32 30 28 28 27 27 29 28 26 24 23 20 18 20 18 22 24 23 20 19 23 25 26 25 25 26 26
11 20 31 16 12 19 21 23 25 28 29 31 32 33 33 33 32 30 28 27 26 26 27 26 24 21 19 15 15 16 26 24 23 22 19 19 21 24 25 26 27 26 25
9 19 25 41 24 20 21 23 21 26 28 31 32 32 33 32 31 31 29 26 24 25 26 24 21 19 15 17 25 28 28 26 24 22 23 19 18 21 23 24 25 25 25
7 18 24 34 39 29 26 18 23 24 28 31 31 32 33 32 31 29 29 26 23 23 23 21 20 20 24 26 28 27 25 24 24 25 21 20 18 21 21 22 23 22 23
5 3 23 28 21 34 38 27 25 24 26 28 30 31 32 30 29 27 27 25 23 22 21 19 21 24 26 26 26 27 26 23 24 25 22 19 19 21 22 22 23 23 24
5 8 20 36 22 26 34 33 29 24 25 27 30 30 30 29 28 28 26 24 22 19 19 19 20 24 25 24 23 25 22 23 23 22 20 19 19 20 21 22 21 22 22
8 4 10 16 26 27 24 27 33 27 27 26 28 28 27 28 28 27 25 23 22 19 18 19 20 21 24 22 25 25 22 20 21 18 17 17 18 18 19 20 20 20 21
6 6 10 9 34 35 23 24 30 29 27 26 27 28 28 27 26 26 25 22 23 20 17 17 18 20 24 24 28 26 22 21 21 20 18 16 16 16 17 17 17 18 18
9 11 12 14 21 26 16 24 28 29 28 27 26 27 24 20 21 21 21 21 21 21 17 15 16 19 20 24 24 23 20 20 19 19 16 15 14 13 14 15 16 16 16
11 10 9 20 6 15 16 17 21 24 20 18 18 18 17 19 18 20 23 26 24 18 15 14 14 13 15 20 19 20 18 18 18 15 15 12 11 12 13 13 13 14 14
9 11 13 16 23 18 8 18 14 17 16 16 18 19 18 17 16 14 14 15 19 17 14 14 11 10 12 15 17 19 17 15 14 13 13 12 10 12 13 12 12 12 12
10 10 15 14 12 15 12 10 15 14 16 14 15 18 17 13 12 13 11 15 15 15 13 12 10 11 11 14 20 18 16 13 11 10 10 11 12 12 12 12 10 11 11
9 9 9 11 10 12 11 10 10 9 13 15 16 16 17 15 9 12 13 14 13 13 14 11 13 11 10 11 15 16 14 13 12 9 8 10 13 12 12 12 11 8 9
7 8 10 10 10 9 4 11 8 10 11 15 14 15 17 17 12 11 11 12 12 15 14 15 13 11 10 12 10 15 14 14 11 10 8 9 14 11 10 11 10 10 7
5 9 9 12 11 10 8 13 10 10 11 10 11 16 20 19 17 13 10 7 12 16 13 13 9 10 8 7 7 10 14 14 13 11 11 10 12 12 11 11 10 10 9
9 9 9 11 11 10 9 14 9 4 9 9 12 15 17 19 20 15 8 7 14 12 14 9 7 4 4 4 4 4 9 14 15 14 13 12 14 14 13 14 12 11 9
11 11 8 9 12 12 9 10 7 7 6 7 7 7 6 11 16 14 11 13 16 13 10 8 2 4 4 4 4 4 7 7 11 12 13 14 14 14 14 13 14 13 11
8 10 11 10 12 11 9 6 2 1 2 6 6 10 10 13 15 16 12 13 16 7 5 4 4 2 3 5 4 4 4 5 10 11 14 14 18 18 16 15 15 15 14
10 11 12 11 9 9 9 9 5 5 2 3 5 9 13 16 16 15 9 8 11 8 9 8 4 5 1 3 4 2 1 2 3 3 12 14 14 19 20 19 19 17 16
14 14 14 14 12 11 9 8 5 7 3 4 6 11 16 15 17 14 11 6 10 6 6 6 5 3 2 3 3 2 1 3 2 4 4 7 10 15 15 21 22 20 20
15 16 15 16 15 13 12 6 3 3 2 5 6 8 10 14 15 15 14 10 9 7 7 7 6 7 4 1 2 4 2 4 1 0 4 4 5 6 13 18 22 22 23
16 13 14 14 14 13 14 10 10 10 10 10 9 8 7 16 16 17 16 14 10 8 6 6 4 4 5 4 2 2 2 5 4 2 2 3 4 5 7 13 17 21 24
17 16 14 15 15 15 13 14 10 12 10 6 4 8 9 6 16 17 15 13 8 7 6 7 7 7 5 5 5 3 1 1 2 2 3 3 1 4 7 11 16 17 22
16 16 16 18 19 17 17 17 17 17 13 9 7 8 9 8 6 12 14 13 11 9 8 7 6 9 6 5 4 4 3 3 3 3 2 3 3 3 4 7 8 15 21
Wind_Direction
129 138 136 134 145 165 119 114 106 110 109 110 114 113 112 112 112 110 105 104 105 106 106 103 100 98 95 95 95 93 89 86 83 83 82 79 77 76 75 71 68 69 72
159 142 123 144 139 141 127 116 124 115 116 119 116 115 111 110 108 106 107 108 107 107 106 103 100 100 100 102 102 99 89 88 83 79 77 81 81 77 77 73 70 71 68
103 138 130 170 145 144 127 124 126 123 122 120 117 115 111 111 110 108 108 108 107 108 108 106 102 101 102 106 113 116 77 90 86 84 82 81 79 82 81 81 79 77 74
131 138 146 169 188 135 130 128 129 128 128 124 121 119 117 117 115 114 111 110 109 109 110 108 102 101 96 94 92 107 108 95 86 83 74 75 79 81 83 82 78 77 77
198 177 165 158 180 142 127 123 130 132 130 125 124 123 119 119 118 117 115 112 112 110 109 104 100 90 79 95 108 101 102 97 92 85 80 80 86 87 83 80 79 80 78
202 174 172 164 156 138 117 125 137 135 131 128 126 124 122 123 121 119 117 115 110 107 103 98 89 76 66 105 110 102 99 97 89 85 79 84 86 88 88 86 85 83 79
330 175 161 144 148 139 138 155 138 134 126 126 126 125 123 122 119 118 115 112 109 104 98 90 83 78 76 104 105 105 100 98 94 87 85 88 91 91 89 87 86 85 84
33 81 137 139 155 150 151 142 129 123 120 125 126 126 122 122 121 117 114 111 106 100 97 89 84 86 82 91 101 104 107 105 99 96 95 92 93 92 90 89 87 87 86
91 99 145 181 156 145 141 130 124 118 116 116 121 121 122 120 120 118 116 113 108 104 98 90 87 83 82 87 116 113 109 107 107 107 100 97 98 96 95 94 92 90 89
113 109 137 55 147 130 144 128 113 117 111 113 112 114 117 118 120 118 118 119 115 113 106 96 87 73 69 77 116 118 115 115 111 109 106 107 106 103 99 97 95 94 93
79 91 85 50 110 113 172 111 108 112 113 114 114 114 116 119 120 116 121 119 120 119 115 95 81 69 63 84 111 118 119 120 120 117 116 115 110 106 105 102 102 97 94
113 117 122 112 71 112 128 110 114 119 122 121 126 119 118 119 126 127 132 137 126 124 115 104 89 70 66 85 115 121 120 123 120 125 123 123 122 120 116 115 110 104 102
114 119 122 130 141 139 152 133 128 126 124 128 130 130 133 126 122 122 131 123 123 131 122 117 97 81 108 96 113 114 121 119 122 124 134 135 134 133 130 126 115 110 106
117 113 133 141 142 153 156 143 135 138 129 135 138 136 132 133 124 129 133 132 137 139 135 127 121 118 109 106 113 124 128 127 121 115 123 154 153 150 145 135 124 122 124
108 122 126 138 136 151 154 116 121 126 134 149 145 143 144 131 134 144 133 150 157 151 145 142 142 136 125 112 112 124 132 132 127 131 140 159 164 163 156 149 138 132 142
104 123 129 138 143 145 150 136 128 122 135 142 147 152 147 134 155 141 151 166 175 164 166 158 157 148 133 124 115 126 144 140 139 144 148 149 155 157 163 161 157 153 160
131 119 138 137 139 149 154 144 142 150 142 135 139 148 139 157 152 154 162 165 191 182 180 168 146 143 134 144 137 131 137 155 159 159 147 138 146 155 155 160 166 164 167
131 139 142 145 155 146 143 156 174 145 154 167 163 148 164 160 167 175 165 181 195 190 173 169 154 145 163 160 153 158 155 160 174 166 157 150 150 150 150 153 156 164 167
150 148 148 153 149 140 160 183 195 179 176 188 176 134 185 195 183 165 172 192 189 177 177 164 161 143 162 173 177 175 174 176 180 171 166 171 170 166 168 169 168 172 175
167 167 170 168 165 163 169 186 239 263 242 218 175 183 206 221 198 184 185 178 175 163 161 157 158 167 163 177 180 174 193 209 179 176 181 187 188 185 185 188 187 188 191
173 182 181 182 183 168 178 185 180 213 227 277 242 215 224 222 213 194 182 180 169 175 183 183 151 162 159 150 103 34 299 266 249 214 182 189 193 195 195 198 201 199 200
178 190 186 186 184 192 185 187 187 194 210 227 226 251 234 214 197 194 188 188 180 185 182 170 157 134 114 160 138 80 241 319 308 227 221 189 205 198 195 204 208 205 205
193 191 190 189 185 190 190 183 181 179 242 222 234 241 235 212 196 197 200 194 192 189 187 186 172 154 143 199 205 143 114 227 320 354 228 223 208 201 205 204 210 210 211
198 195 193 194 196 195 192 196 204 203 207 218 224 223 214 207 205 204 197 196 193 193 188 182 162 163 140 149 83 292 180 156 182 281 270 234 218 222 216 208 206 208 209
185 191 194 194 203 205 201 204 206 218 220 228 220 225 227 210 210 207 196 194 195 196 196 170 170 165 168 156 167 168 129 75 75 133 219 266 358 245 228 219 219 211 209
189 193 194 195 206 207 207 208 209 213 217 221 228 223 226 223 212 205 198 196 200 202 195 180 182 167 166 144 161 149 165 168 187 167 192 234 232 269 248 229 215 225 225